CAPE
1 0 0 0 0 0 0 0 0 0 0 0 0 0 0 0 0 0 0 0 0 0 0 0 0 0 0 0 0 0 0 1 2 0 0 0 0 7 9 19 52 47 62 6
0 1 0 0 0 0 0 0 0 0 0 0 0 0 0 0 0 0 0 0 0 0 0 0 0 0 0 0 0 0 0 0 0 0 0 0 0 0 0 45 106 217 261 195
1 0 0 0 0 0 0 0 0 0 0 0 0 0 0 0 0 0 0 0 0 0 0 0 0 0 0 0 0 0 0 0 0 6 12 24 0 0 0 0 42 38 13 124
1 1 0 0 0 0 0 0 0 0 0 0 0 0 0 0 0 0 0 0 0 0 0 0 0 0 0 0 0 0 0 0 0 3 0 0 5 8 40 0 3 28 127 18
2 0 0 0 0 0 0 0 0 0 0 0 0 0 0 0 0 0 0 0 0 0 0 0 0 0 0 0 0 0 0 12 0 1 0 0 0 0 0 10 6 42 69 34
1 1 0 0 0 0 0 0 0 0 0 0 0 0 0 0 0 0 0 0 0 0 0 0 0 0 0 2 0 0 1 7 0 1 0 4 12 2 0 0 96 90 122 168
0 4 1 0 0 0 0 0 0 0 0 0 0 0 0 0 0 0 0 0 0 0 0 0 0 0 0 0 0 0 5 35 9 0 1 2 60 79 88 14 5 25 78 125
1 4 0 0 0 0 0 0 0 0 0 0 0 0 0 0 0 0 0 0 0 0 0 0 0 0 0 0 0 0 0 0 0 0 0 0 49 67 65 9 4 29 17 212
6 5 2 1 0 0 0 0 0 0 0 0 0 0 0 0 0 0 0 0 0 0 0 0 0 0 0 0 0 0 0 0 0 0 0 1 35 182 354 184 205 247 637 654
11 5 1 2 0 0 0 0 0 0 0 0 0 0 0 0 0 0 0 1 0 0 0 0 0 0 0 0 0 0 0 0 0 0 0 0 7 1001 946 105 557 1861 1719 1486
3 2 3 3 2 0 0 0 0 0 0 0 0 0 0 0 0 0 2 0 0 0 0 0 0 0 0 0 0 4 0 0 0 0 0 0 315 593 364 1910 2066 2099 2020 1790
7 2 5 3 3 0 0 0 0 0 0 0 0 0 0 0 0 0 0 0 6 0 0 0 0 0 0 3 0 0 8 0 36 2 0 1075 1097 1848 1997 1968 2073 2307 2205 1866
9 3 3 3 1 0 0 0 0 0 0 0 0 0 0 0 0 0 0 0 31 17 0 1 5 8 33 20 0 20 22 9 54 7 35 566 972 1402 1729 1788 2004 2090 2047 1944
0 7 2 1 0 0 0 0 0 0 0 0 1 0 0 0 0 0 0 0 0 0 0 0 1 19 19 25 18 61 205 291 1 0 663 606 1071 1098 1251 1611 1778 1921 2009 1826
0 1 3 2 0 0 0 0 0 0 0 0 0 0 0 0 0 0 0 0 0 0 0 0 0 3 39 31 7 37 77 207 256 282 466 558 886 941 1059 1232 1416 1607 1465 1148
0 0 1 1 0 0 0 3 0 0 0 0 2 0 0 0 0 0 0 0 0 0 0 0 1 43 25 11 23 2 70 90 42 33 213 509 639 769 827 968 999 1245 1140 871
0 0 0 0 0 0 1 0 0 0 0 0 2 4 0 2 0 0 1 0 0 0 0 0 2 19 3 1 12 136 93 76 50 24 47 365 265 365 481 766 811 700 653 323
0 0 0 0 0 0 4 3 0 0 0 0 6 26 5 0 9 15 7 1 0 0 0 1 2 1 13 0 0 0 40 58 21 19 55 64 179 193 316 395 644 649 593 283
0 0 0 0 0 10 1 0 0 1 1 1 0 27 68 0 35 59 12 28 26 9 9 2 5 8 2 10 5 0 21 52 25 26 38 66 84 131 134 123 331 478 368 330
0 0 3 10 9 0 0 0 2 5 0 0 0 29 39 11 38 28 48 47 27 20 9 35 18 23 14 8 14 61 71 54 80 62 51 24 172 157 27 43 41 340 346 374
0 22 16 6 0 7 9 7 11 2 4 0 4 29 16 15 28 46 76 98 114 37 48 27 18 32 18 1 28 34 55 58 71 88 93 91 147 126 88 1 0 1 408 348
4 0 0 23 15 8 7 9 8 6 8 13 18 24 38 16 39 115 141 30 38 23 78 44 19 104 170 79 5 6 31 51 48 53 73 93 106 168 181 74 23 30 288 465
0 8 26 9 7 0 2 7 8 5 16 24 39 44 44 84 94 93 80 31 27 34 11 34 112 125 29 10 8 0 8 9 69 66 89 97 123 151 170 177 52 77 24 160
19 17 0 8 3 0 18 21 18 41 16 31 14 13 21 90 126 97 69 66 72 26 10 41 37 31 5 4 4 7 8 7 55 96 203 231 249 267 255 268 191 60 332 332
12 1 0 0 5 14 5 3 17 13 15 13 16 11 15 26 28 61 56 30 15 21 46 20 8 18 3 2 10 2 8 9 10 141 249 340 377 492 526 478 236 113 268 346
21 10 11 8 9 7 19 27 34 21 15 17 18 14 11 4 6 5 12 13 21 32 13 13 12 11 7 15 31 16 2 8 4 15 225 388 478 588 637 637 536 499 727 729
20 16 4 8 22 17 16 58 32 16 7 10 3 4 18 8 6 5 18 24 39 3 2 3 11 2 0 5 6 0 4 4 5 12 211 336 847 1062 1046 1065 938 827 949 816
CIN
-1 -0 -0 -0 -0 -0 -0 -0 -0 -0 -0 -0 -0 -0 -0 -0 -0 -0 -0 -0 -0 -0 -0 -0 -0 -0 -0 -0 -0 -0 -0 -42 -57 -0 -0 -0 -0 -34 -24 -30 -18 -25 -33 -47
-0 -0 -0 -0 -0 -0 -0 -0 -0 -0 -0 -0 -0 -0 -0 -0 -0 -0 -0 -0 -0 -0 -0 -0 -0 -0 -0 -0 -0 -0 -0 -0 -0 -0 -0 -0 -0 -0 -0 -20 -26 -17 -12 -13
-0 -0 -0 -0 -0 -0 -0 -0 -0 -0 -0 -0 -0 -0 -0 -0 -0 -0 -0 -0 -0 -0 -0 -0 -0 -0 -0 -0 -0 -0 -56 -0 -0 -6 -50 -63 -0 -0 -0 -0 -26 -32 -33 -5
-0 -0 -0 -0 -0 -0 -0 -0 -0 -0 -0 -0 -0 -0 -0 -0 -0 -0 -0 -0 -0 -0 -0 -0 -0 -0 -0 -0 -0 -0 -0 -0 -0 -81 -0 -0 -25 -19 -10 -0 -60 -54 -12 -97
-0 -0 -0 -0 -0 -0 -0 -0 -0 -0 -0 -0 -0 -0 -0 -0 -0 -0 -0 -0 -0 -0 -0 -0 -0 -0 -0 -0 -0 -0 -0 -148 -0 -3 -0 -0 -0 -0 -0 -4 -26 -41 -20 -38
-0 -0 -0 -0 -0 -0 -0 -0 -0 -0 -0 -0 -0 -0 -0 -0 -0 -0 -0 -0 -0 -0 -0 -0 -0 -0 -48 -104 -0 -0 -36 -83 -0 -56 -0 -2 -4 -7 -0 -0 -4 -8 -7 -4
-0 -0 -0 -0 -0 -0 -0 -0 -0 -0 -0 -0 -0 -0 -0 -0 -0 -0 -0 -0 -0 -0 -0 -0 -0 -0 -0 -0 -0 -0 -97 -115 -83 -0 -0 -3 -4 -7 -7 -2 -6 -9 -9 -17
-0 -0 -0 -0 -0 -0 -0 -0 -0 -0 -0 -0 -0 -0 -0 -0 -0 -0 -0 -0 -0 -0 -0 -0 -0 -0 -0 -0 -0 -0 -0 -0 -0 -0 -0 -0 -5 -6 -5 -2 -7 -6 -6 -6
-1 -0 -0 -0 -0 -0 -0 -0 -0 -0 -0 -0 -0 -0 -0 -0 -0 -0 -0 -0 -0 -0 -0 -0 -0 -0 -0 -0 -0 -0 -0 -0 -0 -0 -0 -23 -4 -2 -5 -8 -6 -2 -12 -1
-2 -0 -0 -0 -0 -0 -0 -0 -0 -0 -0 -0 -0 -0 -0 -0 -0 -0 -1 -1 -0 -0 -0 -0 -0 -0 -0 -0 -0 -0 -0 -0 -0 -0 -0 -0 -34 -4 -14 -5 -13 -43 -5 -3
-2 -0 -1 -0 -0 -0 -0 -0 -0 -0 -0 -0 -0 -0 -0 -0 -0 -0 -5 -0 -0 -0 -0 -0 -0 -0 -0 -0 -0 -4 -0 -0 -0 -0 -0 -0 -10 -19 -5 -59 -59 -63 -50 -63
-2 -0 -1 -0 -0 -0 -0 -0 -0 -0 -0 -0 -0 -0 -0 -0 -0 -0 -2 -0 -4 -0 -0 -0 -0 -0 -0 -2 -0 -0 -7 -0 -6 -4 -0 -32 -41 -22 -68 -64 -47 -34 -34 -47
-2 -0 -0 -0 -0 -2 -0 -0 -0 -0 -0 -0 -0 -0 -0 -0 -0 -0 -0 -0 -13 -10 -0 -2 -4 -3 -2 -4 -0 -5 -5 -5 -18 -11 -12 -2 -26 -10 -34 -65 -45 -45 -28 -30
-0 -1 -0 -0 -0 -1 -0 -0 -0 -0 -0 -0 -2 -0 -0 -0 -0 -0 -0 -0 -0 -0 -0 -0 -1 -2 -3 -5 -5 -11 -4 -3 -5 -0 -9 -4 -1 -15 -59 -36 -34 -21 -10 -29
-0 -0 -0 -0 -0 -0 -0 -1 -0 -0 -0 -0 -0 -0 -0 -0 -0 -0 -0 -0 -0 -0 -0 -0 -0 -4 -3 -2 -6 -4 -5 -5 -4 -21 -2 -10 -0 -8 -22 -11 -13 -9 -50 -110
-0 -0 -0 -0 -0 -0 -0 -1 -0 -0 -0 -0 -1 -0 -0 -0 -0 -0 -0 -0 -0 -0 -0 -1 -4 -10 -11 -3 -2 -5 -6 -2 -21 -3 -6 -1 -1 -9 -9 -6 -8 -5 -36 -97
-0 -0 -0 -0 -0 -0 -1 -0 -0 -0 -0 -0 -1 -4 -0 -1 -0 -0 -0 -0 -0 -0 -0 -0 -2 -3 -1 -2 -5 -4 -23 -6 -2 -46 -52 -2 -1 -1 -0 -0 -1 -11 -42 -136
-0 -0 -0 -0 -0 -0 -0 -0 -0 -0 -0 -0 -3 -5 -3 -0 -4 -3 -1 -1 -0 -0 -0 -1 -1 -1 -2 -1 -0 -0 -2 -2 -5 -22 -7 -4 -2 -0 -0 -0 -1 -0 -5 -75
-0 -0 -0 -0 -1 -0 -4 -0 -0 -0 -1 -0 -0 -14 -4 -0 -14 -25 -4 -4 -5 -3 -2 -3 -2 -4 -2 -2 -2 -0 -2 -1 -1 -2 -2 -2 -2 -15 -3 -5 -1 -0 -0 -21
-0 -0 -1 -0 -3 -0 -0 -0 -0 -0 -0 -0 -0 -1 -18 -4 -1 -4 -5 -1 -4 -2 -10 -3 -7 -4 -1 -3 -2 -3 -1 -1 -1 -1 -1 -1 -2 -4 -36 -22 -10 -0 -0 -0
-0 -0 -1 -4 -0 -0 -1 -2 -0 -2 -1 -0 -2 -2 -10 -2 -5 -2 -2 -4 -3 -1 -1 -3 -3 -3 -9 -0 -3 -2 -0 -1 -0 -0 -1 -0 -2 -13 -2 -1 -0 -6 -1 -0
-11 -0 -0 -1 -0 -3 -1 -1 -0 -1 -3 -1 -3 -1 -1 -12 -1 -2 -3 -2 -2 -1 -2 -2 -1 -7 -1 -3 -5 -26 -2 -0 -1 -0 -0 -1 -1 -1 -1 -1 -0 -37 -1 -9
-0 -0 -0 -0 -3 -0 -1 -0 -0 -2 -1 -2 -1 -1 -2 -1 -1 -2 -2 -1 -2 -2 -2 -2 -12 -19 -48 -35 -46 -0 -8 -3 -3 -1 -1 -1 -0 -2 -1 -1 -10 -1 -69 -1
-1 -0 -0 -0 -1 -2 -2 -1 -3 -1 -0 -0 -2 -1 -3 -1 -0 -0 -0 -2 -1 -1 -2 -4 -11 -20 -0 -1 -0 -1 -0 -5 -2 -1 -1 -0 -0 -1 -1 -1 -3 -1 -1 -2
-1 -1 -0 -0 -3 -1 -10 -5 -1 -1 -2 -1 -3 -2 -4 -1 -3 -1 -2 -0 -1 -2 -1 -10 -3 -10 -1 -3 -1 -1 -0 -0 -0 -2 -1 -2 -2 -1 -1 -2 -2 -15 -1 -1
-0 -0 -1 -1 -2 -3 -1 -1 -2 -0 -3 -4 -1 -0 -1 -4 -2 -2 -2 -1 -3 -0 -1 -1 -1 -1 -1 -0 -0 -0 -0 -0 -0 -123 -19 -23 -34 -2 -7 -0 -1 -1 -1 -1
-1 -0 -3 -4 -1 -1 -1 -1 -6 -1 -2 -0 -9 -5 -1 -1 -2 -1 -2 -1 -1 -10 -0 -1 -3 -1 -0 -0 -0 -0 -0 -0 -0 -113 -35 -50 -8 -0 -0 -1 -2 -3 -1 -1
Wind_Speed
28 28 29 29 29 29 20 21 22 14 15 20 31 35 32 23 24 24 24 21 25 24 19 21 26 24 19 17 19 12 12 16 20 12 17 14 21 24 14 24 18 28 33 22
28 28 28 28 27 25 21 20 18 16 20 24 25 29 28 26 28 26 22 21 21 23 23 23 23 22 13 16 19 17 13 15 20 19 16 9 16 12 18 25 30 27 28 18
27 28 28 28 27 24 19 20 17 16 21 28 26 26 31 28 26 28 25 22 19 20 20 18 20 19 18 20 23 19 17 21 22 27 17 21 2 3 13 20 29 26 15 25
27 27 27 28 27 25 18 19 20 18 20 25 26 25 25 29 23 28 22 25 25 22 22 18 22 22 18 22 19 20 20 26 28 34 32 24 18 12 8 21 29 37 28 24
26 26 26 27 27 25 18 21 20 19 21 19 22 20 27 28 27 21 26 30 25 26 25 24 23 23 25 24 16 19 18 24 26 34 27 25 23 18 26 29 24 36 37 17
26 26 25 25 25 22 18 19 20 21 17 21 23 21 23 24 24 21 25 22 30 24 25 27 20 23 21 20 21 20 21 22 23 26 22 28 16 18 29 31 28 32 32 25
25 25 24 24 23 21 21 18 21 22 24 22 21 22 20 22 21 26 22 21 24 20 22 24 29 30 28 26 23 21 22 21 24 27 26 14 22 24 23 26 33 33 30 25
24 24 24 23 23 22 20 18 19 21 25 21 20 22 22 23 20 25 22 23 21 23 24 27 28 28 29 30 26 22 20 23 25 27 30 30 29 14 21 26 33 30 25 20
24 23 23 22 22 22 20 17 20 20 23 19 21 22 24 25 24 24 26 22 23 24 27 26 32 31 26 27 25 20 21 22 29 27 32 20 33 27 15 20 32 27 31 14
23 22 22 22 22 22 21 18 19 20 24 20 21 24 24 25 28 26 21 22 25 24 29 31 30 32 29 28 21 18 22 24 27 28 36 28 30 20 19 16 23 23 21 19
23 22 22 22 22 22 20 18 18 19 23 23 20 22 25 23 24 27 20 22 26 25 29 31 29 29 27 30 26 20 21 24 28 29 35 38 20 24 28 20 19 23 23 21
23 22 22 22 21 21 21 18 18 20 22 22 22 24 25 25 22 24 23 25 23 23 26 28 27 29 25 24 29 24 24 22 25 25 27 17 17 18 19 22 23 22 21 19
23 22 22 22 21 21 21 21 20 21 21 24 21 21 19 22 25 23 24 21 23 23 22 25 26 27 23 26 28 24 23 25 26 24 17 16 19 17 19 22 23 22 20 17
23 23 22 22 22 22 21 20 20 20 20 20 16 16 19 18 21 22 23 24 23 25 26 29 28 26 27 31 24 27 17 18 25 27 19 20 16 20 21 22 21 19 17 17
23 23 23 22 22 22 22 22 19 18 19 19 18 17 16 15 16 18 20 23 24 25 25 26 28 29 26 28 33 29 24 24 25 22 22 24 21 22 22 22 21 20 19 18
23 24 23 23 22 21 19 14 14 17 18 18 17 15 14 13 12 13 16 19 22 24 25 25 27 20 25 28 30 28 23 21 21 22 24 23 23 22 22 22 22 21 19 19
24 24 24 23 22 21 19 17 18 19 19 16 17 14 11 11 10 13 16 16 20 21 24 26 26 24 21 32 32 18 22 24 24 24 25 25 21 22 22 22 21 20 17 17
24 24 25 24 23 21 19 17 20 19 19 19 17 13 11 10 13 14 16 18 19 20 23 23 23 24 23 30 32 31 20 24 28 26 24 25 25 24 23 22 20 19 16 15
23 23 22 18 19 18 17 17 17 19 19 18 19 19 13 10 20 14 18 20 20 20 21 23 23 24 26 24 25 28 27 28 29 30 28 28 26 23 23 24 23 20 17 14
22 19 19 19 16 15 17 17 18 19 18 20 23 18 18 18 20 21 15 19 21 20 24 22 24 26 23 21 20 21 23 24 25 28 28 27 25 23 23 22 24 21 18 15
16 19 17 14 14 17 19 19 20 19 20 19 22 18 16 13 21 20 16 17 18 19 17 19 19 22 18 12 17 20 21 23 25 25 26 27 26 22 22 20 27 26 12 13
18 18 17 17 18 19 20 21 19 21 20 18 19 16 20 18 19 18 19 20 19 21 13 20 23 15 14 15 18 21 23 23 24 26 27 27 27 25 25 23 20 23 18 13
18 18 19 18 20 21 23 22 20 20 16 17 17 20 19 19 20 20 19 20 21 19 19 19 18 14 16 18 21 23 25 26 25 26 27 28 29 27 27 26 25 22 14 14
20 19 21 22 21 22 19 21 18 19 17 16 19 18 18 18 18 19 19 17 20 19 19 16 16 19 22 24 25 28 29 30 30 28 27 28 30 30 30 31 29 25 21 16
21 20 22 24 22 18 16 18 16 15 16 18 19 18 19 18 19 18 19 20 20 17 17 18 20 24 25 26 27 30 29 32 30 30 28 27 28 28 29 30 30 25 19 19
20 21 21 22 19 21 19 17 16 15 15 18 17 17 17 19 18 20 22 21 20 19 22 25 26 28 31 32 35 25 24 31 27 29 31 28 28 28 26 18 19 18 19 17
21 22 23 20 19 19 15 15 14 17 16 16 16 18 19 19 21 22 21 21 21 20 24 27 30 34 37 34 31 21 25 22 27 28 28 28 25 20 18 14 12 10 9 8
Wind_Direction
317 316 312 311 312 307 284 275 265 279 260 248 242 239 242 257 256 255 258 264 256 255 264 263 261 258 270 266 268 265 274 295 291 301 321 310 303 300 307 287 297 286 281 299
315 315 314 312 313 314 282 274 281 276 254 251 251 247 251 253 251 255 262 266 265 259 260 266 261 261 278 272 270 281 282 289 291 298 304 304 306 305 297 284 275 278 278 311
316 315 314 312 310 307 285 273 273 273 257 258 258 252 251 253 257 259 261 267 269 267 267 273 267 268 276 271 269 283 288 283 282 266 324 295 336 0 300 284 267 277 191 272
315 314 315 313 309 304 285 274 274 274 264 257 255 262 258 251 257 257 262 261 260 262 265 266 265 264 268 269 279 281 279 278 278 272 280 294 306 320 320 282 269 239 262 292
315 315 315 314 311 301 284 276 276 269 274 271 260 260 256 254 256 264 259 258 259 259 261 261 263 263 263 268 274 273 282 284 283 273 282 287 293 299 286 275 280 250 248 327
315 314 315 316 316 306 290 290 278 272 273 264 261 260 260 257 260 261 268 262 254 257 260 262 271 271 274 285 278 279 280 284 283 285 286 279 290 293 278 269 273 260 268 295
314 315 314 315 315 313 287 296 280 270 269 263 262 266 263 260 262 264 261 263 257 272 274 270 266 266 269 272 276 280 284 284 282 282 284 275 292 286 289 275 262 261 274 293
311 311 313 313 313 307 294 298 284 275 266 269 267 266 263 263 269 260 265 264 274 278 271 266 265 265 268 268 269 271 276 280 281 276 273 272 271 309 293 280 268 274 278 288
307 309 311 310 312 307 295 303 289 278 270 273 275 267 263 261 263 263 263 272 277 271 263 261 258 261 268 271 269 263 267 271 270 275 270 255 261 292 302 297 271 282 283 281
304 306 306 308 308 306 295 298 298 280 270 285 278 268 267 265 265 265 269 262 270 264 258 259 260 262 266 267 269 263 260 262 265 269 266 279 270 295 297 292 287 300 308 320
299 301 303 303 304 305 300 297 300 286 275 281 286 278 267 272 266 261 273 268 265 263 258 259 262 265 268 263 267 266 268 260 266 268 267 265 292 289 274 290 302 305 312 318
297 295 297 299 300 300 296 293 304 293 279 283 291 280 275 270 276 270 273 270 271 265 264 259 267 264 266 270 262 269 270 270 271 277 274 289 303 296 298 295 293 298 304 312
293 290 290 294 295 295 294 288 294 290 287 284 284 283 283 275 268 273 270 267 275 270 274 272 267 265 273 268 264 276 268 275 271 285 284 296 296 303 305 300 299 298 302 306
286 285 283 287 289 289 288 284 293 291 292 286 295 303 289 287 273 267 266 275 280 274 270 264 265 269 270 263 280 270 294 286 271 271 293 294 301 303 301 303 304 305 309 310
283 279 277 279 282 283 277 268 287 294 288 289 300 306 302 293 279 269 267 271 273 269 267 264 265 266 277 270 268 270 280 280 276 273 289 289 295 304 302 300 301 302 302 308
279 276 272 272 275 275 273 292 305 290 289 293 297 315 302 299 286 271 270 271 271 268 268 269 268 281 275 272 268 266 281 288 283 290 294 296 296 299 302 301 299 301 301 302
275 271 266 264 264 262 270 276 279 281 275 292 298 305 307 298 286 277 274 276 273 270 270 269 273 277 276 265 265 281 282 286 286 291 291 286 296 296 301 301 302 302 306 304
271 266 261 254 251 251 263 272 258 263 266 266 286 303 301 282 277 277 273 274 273 275 271 276 274 276 277 272 268 273 287 287 288 287 288 289 293 296 297 297 300 300 303 303
267 261 254 251 253 258 268 276 268 254 255 262 259 271 280 289 255 279 270 271 272 278 272 272 277 274 272 281 279 274 282 284 289 283 283 284 289 294 296 297 291 293 296 301
260 250 246 249 257 270 262 261 255 253 256 251 237 271 265 260 258 254 276 270 269 278 272 279 271 274 282 285 288 289 291 293 289 287 282 281 287 288 290 294 297 293 289 289
253 245 249 259 260 254 249 247 246 249 248 259 248 268 278 289 252 259 275 277 276 278 282 279 284 282 285 289 300 299 296 292 291 291 290 285 285 283 290 290 280 289 300 283
252 245 249 248 248 246 242 241 246 244 251 259 257 269 254 264 260 263 267 272 280 279 303 287 281 300 309 311 310 304 300 298 295 293 290 286 281 282 279 283 283 279 286 283
239 239 237 241 240 239 233 233 239 242 260 261 262 245 257 259 258 262 274 277 277 292 293 290 300 306 309 310 309 302 300 300 301 295 292 285 279 276 273 271 272 277 277 279
232 230 228 231 232 232 244 242 249 253 264 269 260 265 263 270 267 270 276 291 285 288 290 301 288 288 290 298 303 300 298 296 294 296 291 286 275 271 266 261 264 267 273 278
226 230 226 225 234 249 253 250 257 272 273 270 262 273 267 276 277 281 280 264 259 287 299 288 299 300 312 312 311 305 312 294 287 284 287 285 277 272 266 260 259 264 277 274
230 232 231 231 237 232 239 248 254 274 281 262 278 284 281 274 276 257 241 239 239 294 293 293 301 305 304 298 298 318 317 282 284 275 261 268 263 263 263 271 264 268 270 276
226 228 227 234 235 234 250 259 271 266 286 280 283 270 258 254 239 235 248 247 277 288 295 299 302 296 293 278 293 236 236 210 226 231 237 238 246 260 261 272 286 290 301 301